Year,Month,Day,Hour,Minute,Value (Times are PST for temperature in C)
2015,07,03,00,00,21.40
2015,07,03,00,01,21.40
2015,07,03,00,02,21.40
2015,07,03,00,03,21.40
2015,07,03,00,04,21.40
2015,07,03,00,05,21.40
2015,07,03,00,06,21.30
2015,07,03,00,07,21.30
2015,07,03,00,08,21.30
2015,07,03,00,09,21.30
2015,07,03,00,10,21.30
2015,07,03,00,11,21.30
2015,07,03,00,12,21.20
2015,07,03,00,13,21.20
2015,07,03,00,14,21.20
2015,07,03,00,15,21.20
2015,07,03,00,16,21.20
2015,07,03,00,17,21.10
2015,07,03,00,18,21.10
2015,07,03,00,19,21.10
2015,07,03,00,20,21.00
2015,07,03,00,21,21.00
2015,07,03,00,22,21.00
2015,07,03,00,23,20.90
2015,07,03,00,24,20.90
2015,07,03,00,25,20.90
2015,07,03,00,26,20.90
2015,07,03,00,27,20.80
2015,07,03,00,28,20.80
2015,07,03,00,29,20.80
2015,07,03,00,30,20.80
2015,07,03,00,31,20.80
2015,07,03,00,32,20.80
2015,07,03,00,33,20.80
2015,07,03,00,34,20.80
2015,07,03,00,35,20.80
2015,07,03,00,36,20.80
2015,07,03,00,37,20.80
2015,07,03,00,38,20.80
2015,07,03,00,39,20.80
2015,07,03,00,40,20.80
2015,07,03,00,41,20.80
2015,07,03,00,42,20.80
2015,07,03,00,43,20.80
2015,07,03,00,44,20.80
2015,07,03,00,45,20.70
2015,07,03,00,46,20.70
2015,07,03,00,47,20.70
2015,07,03,00,48,20.70
2015,07,03,00,49,20.70
2015,07,03,00,50,20.70
2015,07,03,00,51,20.70
2015,07,03,00,52,20.70
2015,07,03,00,53,20.70
2015,07,03,00,54,20.70
2015,07,03,00,55,20.70
2015,07,03,00,56,20.60
2015,07,03,00,57,20.60
2015,07,03,00,58,20.60
2015,07,03,00,59,20.60
2015,07,03,01,00,20.60
2015,07,03,01,01,20.60
2015,07,03,01,02,20.60
2015,07,03,01,03,20.70
2015,07,03,01,04,20.70
2015,07,03,01,05,20.70
2015,07,03,01,06,20.80
2015,07,03,01,07,20.80
2015,07,03,01,08,20.80
2015,07,03,01,09,20.80
2015,07,03,01,10,20.80
2015,07,03,01,11,20.80
2015,07,03,01,12,20.70
2015,07,03,01,13,20.70
2015,07,03,01,14,20.70
2015,07,03,01,15,20.70
2015,07,03,01,16,20.70
2015,07,03,01,17,20.70
2015,07,03,01,18,20.70
2015,07,03,01,19,20.70
2015,07,03,01,20,20.70
2015,07,03,01,21,20.70
2015,07,03,01,22,20.70
2015,07,03,01,23,20.60
2015,07,03,01,24,20.60
2015,07,03,01,25,20.60
2015,07,03,01,26,20.50
2015,07,03,01,27,20.50
2015,07,03,01,28,20.40
2015,07,03,01,29,20.40
2015,07,03,01,30,20.30
2015,07,03,01,31,20.30
2015,07,03,01,32,20.20
2015,07,03,01,33,20.20
2015,07,03,01,34,20.20
2015,07,03,01,35,20.10
2015,07,03,01,36,20.10
2015,07,03,01,37,20.10
2015,07,03,01,38,20.10
2015,07,03,01,39,20.10
2015,07,03,01,40,20.10
2015,07,03,01,41,20.10
2015,07,03,01,42,20.10
2015,07,03,01,43,20.10
2015,07,03,01,44,20.10
2015,07,03,01,45,20.10
2015,07,03,01,46,20.10
2015,07,03,01,47,20.10
2015,07,03,01,48,20.10
2015,07,03,01,49,20.10
2015,07,03,01,50,20.10
2015,07,03,01,51,20.10
2015,07,03,01,52,20.20
2015,07,03,01,53,20.20
2015,07,03,01,54,20.30
2015,07,03,01,55,20.30
2015,07,03,01,56,20.30
2015,07,03,01,57,20.30
2015,07,03,01,58,20.30
2015,07,03,01,59,20.30
2015,07,03,02,00,20.30
2015,07,03,02,01,20.30
2015,07,03,02,02,20.30
2015,07,03,02,03,20.30
2015,07,03,02,04,20.30
2015,07,03,02,05,20.30
2015,07,03,02,06,20.20
2015,07,03,02,07,20.20
2015,07,03,02,08,20.20
2015,07,03,02,09,20.20
2015,07,03,02,10,20.20
2015,07,03,02,11,20.20
2015,07,03,02,12,20.10
2015,07,03,02,13,20.10
2015,07,03,02,14,20.10
2015,07,03,02,15,20.10
2015,07,03,02,16,20.00
2015,07,03,02,17,20.00
2015,07,03,02,18,20.00
2015,07,03,02,19,19.90
2015,07,03,02,20,19.90
2015,07,03,02,21,19.90
2015,07,03,02,22,19.80
2015,07,03,02,23,19.80
2015,07,03,02,24,19.80
2015,07,03,02,25,19.70
2015,07,03,02,26,19.70
2015,07,03,02,27,19.60
2015,07,03,02,28,19.60
2015,07,03,02,29,19.60
2015,07,03,02,30,19.50
2015,07,03,02,31,19.50
2015,07,03,02,32,19.40
2015,07,03,02,33,19.40
2015,07,03,02,34,19.30
2015,07,03,02,35,19.20
2015,07,03,02,36,19.10
2015,07,03,02,37,19.00
2015,07,03,02,38,19.00
2015,07,03,02,39,18.90
2015,07,03,02,40,18.90
2015,07,03,02,41,18.80
2015,07,03,02,42,18.70
2015,07,03,02,43,18.60
2015,07,03,02,44,18.50
2015,07,03,02,45,18.50
2015,07,03,02,46,18.40
2015,07,03,02,47,18.30
2015,07,03,02,48,18.20
2015,07,03,02,49,18.20
2015,07,03,02,50,18.10
2015,07,03,02,51,18.00
2015,07,03,02,52,17.90
2015,07,03,02,53,17.90
2015,07,03,02,54,17.80
2015,07,03,02,55,17.70
2015,07,03,02,56,17.70
2015,07,03,02,57,17.60
2015,07,03,02,58,17.60
2015,07,03,02,59,17.50
2015,07,03,03,00,17.40
2015,07,03,03,01,17.30
2015,07,03,03,02,17.30
2015,07,03,03,03,17.20
2015,07,03,03,04,17.20
2015,07,03,03,05,17.20
2015,07,03,03,06,17.10
2015,07,03,03,07,17.10
2015,07,03,03,08,17.10
2015,07,03,03,09,17.10
2015,07,03,03,10,17.20
2015,07,03,03,11,17.20
2015,07,03,03,12,17.20
2015,07,03,03,13,17.30
2015,07,03,03,14,17.40
2015,07,03,03,15,17.40
2015,07,03,03,16,17.50
2015,07,03,03,17,17.50
2015,07,03,03,18,17.50
2015,07,03,03,19,17.60
2015,07,03,03,20,17.60
2015,07,03,03,21,17.70
2015,07,03,03,22,17.70
2015,07,03,03,23,17.80
2015,07,03,03,24,17.90
2015,07,03,03,25,18.00
2015,07,03,03,26,18.00
2015,07,03,03,27,18.10
2015,07,03,03,28,18.20
2015,07,03,03,29,18.20
2015,07,03,03,30,18.20
2015,07,03,03,31,18.30
2015,07,03,03,32,18.30
2015,07,03,03,33,18.30
2015,07,03,03,34,18.40
2015,07,03,03,35,18.40
2015,07,03,03,36,18.40
2015,07,03,03,37,18.40
2015,07,03,03,38,18.40
2015,07,03,03,39,18.40
2015,07,03,03,40,18.40
2015,07,03,03,41,18.40
2015,07,03,03,42,18.40
2015,07,03,03,43,18.40
2015,07,03,03,44,18.40
2015,07,03,03,45,18.40
2015,07,03,03,46,18.40
2015,07,03,03,47,18.40
2015,07,03,03,48,18.40
2015,07,03,03,49,18.40
2015,07,03,03,50,18.30
2015,07,03,03,51,18.30
2015,07,03,03,52,18.30
2015,07,03,03,53,18.30
2015,07,03,03,54,18.30
2015,07,03,03,55,18.30
2015,07,03,03,56,18.20
2015,07,03,03,57,18.20
2015,07,03,03,58,18.20
2015,07,03,03,59,18.10
2015,07,03,04,00,18.00
2015,07,03,04,01,18.00
2015,07,03,04,02,17.90
2015,07,03,04,03,17.80
2015,07,03,04,04,17.80
2015,07,03,04,05,17.80
2015,07,03,04,06,17.70
2015,07,03,04,07,17.60
2015,07,03,04,08,17.60
2015,07,03,04,09,17.60
2015,07,03,04,10,17.60
2015,07,03,04,11,17.60
2015,07,03,04,12,17.50
2015,07,03,04,13,17.40
2015,07,03,04,14,17.40
2015,07,03,04,15,17.30
2015,07,03,04,16,17.30
2015,07,03,04,17,17.30
2015,07,03,04,18,17.30
2015,07,03,04,19,17.20
2015,07,03,04,20,17.20
2015,07,03,04,21,17.10
2015,07,03,04,22,17.00
2015,07,03,04,23,16.90
2015,07,03,04,24,16.80
2015,07,03,04,25,16.80
2015,07,03,04,26,16.70
2015,07,03,04,27,16.60
2015,07,03,04,28,16.60
2015,07,03,04,29,16.50
2015,07,03,04,30,16.40
2015,07,03,04,31,16.40
2015,07,03,04,32,16.40
2015,07,03,04,33,16.40
2015,07,03,04,34,16.40
2015,07,03,04,35,16.40
2015,07,03,04,36,16.40
2015,07,03,04,37,16.30
2015,07,03,04,38,16.30
2015,07,03,04,39,16.30
2015,07,03,04,40,16.30
2015,07,03,04,41,16.20
2015,07,03,04,42,16.20
2015,07,03,04,43,16.20
2015,07,03,04,44,16.20
2015,07,03,04,45,16.20
2015,07,03,04,46,16.20
2015,07,03,04,47,16.20
2015,07,03,04,48,16.20
2015,07,03,04,49,16.20
2015,07,03,04,50,16.20
2015,07,03,04,51,16.10
2015,07,03,04,52,15.90
2015,07,03,04,53,15.90
2015,07,03,04,54,15.90
2015,07,03,04,55,15.80
2015,07,03,04,56,15.80
2015,07,03,04,57,15.70
2015,07,03,04,58,15.60
2015,07,03,04,59,15.60
2015,07,03,05,00,15.60
2015,07,03,05,01,15.60
2015,07,03,05,02,15.50
2015,07,03,05,03,15.50
2015,07,03,05,04,15.60
2015,07,03,05,05,15.60
2015,07,03,05,06,15.60
2015,07,03,05,07,15.60
2015,07,03,05,08,15.60
2015,07,03,05,09,15.60
2015,07,03,05,10,15.60
2015,07,03,05,11,15.60
2015,07,03,05,12,15.60
2015,07,03,05,13,15.50
2015,07,03,05,14,15.50
2015,07,03,05,15,15.40
2015,07,03,05,16,15.40
2015,07,03,05,17,15.30
2015,07,03,05,18,15.30
2015,07,03,05,19,15.30
2015,07,03,05,20,15.30
2015,07,03,05,21,15.30
2015,07,03,05,22,15.20
2015,07,03,05,23,15.20
2015,07,03,05,24,15.20
2015,07,03,05,25,15.20
2015,07,03,05,26,15.10
2015,07,03,05,27,15.10
2015,07,03,05,28,15.10
2015,07,03,05,29,15.10
2015,07,03,05,30,15.10
2015,07,03,05,31,15.00
2015,07,03,05,32,15.00
2015,07,03,05,33,14.90
2015,07,03,05,34,14.90
2015,07,03,05,35,14.90
2015,07,03,05,36,14.90
2015,07,03,05,37,14.90
2015,07,03,05,38,14.90
2015,07,03,05,39,14.90
2015,07,03,05,40,14.90
2015,07,03,05,41,14.80
2015,07,03,05,42,14.80
2015,07,03,05,43,14.80
2015,07,03,05,44,14.80
2015,07,03,05,45,14.80
2015,07,03,05,46,14.80
2015,07,03,05,47,14.90
2015,07,03,05,48,14.90
2015,07,03,05,49,14.90
2015,07,03,05,50,15.00
2015,07,03,05,51,15.00
2015,07,03,05,52,15.00
2015,07,03,05,53,15.10
2015,07,03,05,54,15.10
2015,07,03,05,55,15.10
2015,07,03,05,56,15.10
2015,07,03,05,57,15.10
2015,07,03,05,58,15.10
2015,07,03,05,59,15.10
2015,07,03,06,00,15.10
2015,07,03,06,01,15.10
2015,07,03,06,02,15.20
2015,07,03,06,03,15.20
2015,07,03,06,04,15.20
2015,07,03,06,05,15.20
2015,07,03,06,06,15.20
2015,07,03,06,07,15.20
2015,07,03,06,08,15.30
2015,07,03,06,09,15.30
2015,07,03,06,10,15.30
2015,07,03,06,11,15.30
2015,07,03,06,12,15.40
2015,07,03,06,13,15.60
2015,07,03,06,14,15.70
2015,07,03,06,15,15.70
2015,07,03,06,16,15.80
2015,07,03,06,17,15.80
2015,07,03,06,18,16.00
2015,07,03,06,19,16.00
2015,07,03,06,20,16.10
2015,07,03,06,21,16.10
2015,07,03,06,22,16.20
2015,07,03,06,23,16.30
2015,07,03,06,24,16.40
2015,07,03,06,25,16.40
2015,07,03,06,26,16.40
2015,07,03,06,27,16.50
2015,07,03,06,28,16.60
2015,07,03,06,29,16.70
2015,07,03,06,30,16.80
2015,07,03,06,31,16.90
2015,07,03,06,32,17.00
2015,07,03,06,33,17.00
2015,07,03,06,34,17.20
2015,07,03,06,35,17.30
2015,07,03,06,36,17.40
2015,07,03,06,37,17.50
2015,07,03,06,38,17.60
2015,07,03,06,39,17.70
2015,07,03,06,40,17.80
2015,07,03,06,41,17.80
2015,07,03,06,42,17.90
2015,07,03,06,43,18.00
2015,07,03,06,44,18.10
2015,07,03,06,45,18.10
2015,07,03,06,46,18.20
2015,07,03,06,47,18.20
2015,07,03,06,48,18.30
2015,07,03,06,49,18.30
2015,07,03,06,50,18.40
2015,07,03,06,51,18.40
2015,07,03,06,52,18.40
2015,07,03,06,53,18.50
2015,07,03,06,54,18.50
2015,07,03,06,55,18.50
2015,07,03,06,56,18.60
2015,07,03,06,57,18.60
2015,07,03,06,58,18.60
2015,07,03,06,59,18.60
2015,07,03,07,00,18.60
2015,07,03,07,01,18.60
2015,07,03,07,02,18.60
2015,07,03,07,03,18.60
2015,07,03,07,04,18.70
2015,07,03,07,05,18.70
2015,07,03,07,06,18.70
2015,07,03,07,07,18.70
2015,07,03,07,08,18.70
2015,07,03,07,09,18.70
2015,07,03,07,10,18.80
2015,07,03,07,11,18.80
2015,07,03,07,12,18.80
2015,07,03,07,13,18.90
2015,07,03,07,14,18.90
2015,07,03,07,15,18.90
2015,07,03,07,16,18.90
2015,07,03,07,17,18.90
2015,07,03,07,18,18.90
2015,07,03,07,19,18.90
2015,07,03,07,20,18.90
2015,07,03,07,21,18.90
2015,07,03,07,22,18.90
2015,07,03,07,23,19.00
2015,07,03,07,24,19.00
2015,07,03,07,25,19.10
2015,07,03,07,26,19.10
2015,07,03,07,27,19.10
2015,07,03,07,28,19.10
2015,07,03,07,29,19.10
2015,07,03,07,30,19.20
2015,07,03,07,31,19.20
2015,07,03,07,32,19.20
2015,07,03,07,33,19.20
2015,07,03,07,34,19.20
2015,07,03,07,35,19.20
2015,07,03,07,36,19.30
2015,07,03,07,37,19.30
2015,07,03,07,38,19.30
2015,07,03,07,39,19.40
2015,07,03,07,40,19.40
2015,07,03,07,41,19.50
2015,07,03,07,42,19.60
2015,07,03,07,43,19.70
2015,07,03,07,44,19.70
2015,07,03,07,45,19.70
2015,07,03,07,46,19.70
2015,07,03,07,47,19.70
2015,07,03,07,48,19.70
2015,07,03,07,49,19.70
2015,07,03,07,50,19.70
2015,07,03,07,51,19.70
2015,07,03,07,52,19.70
2015,07,03,07,53,19.70
2015,07,03,07,54,19.70
2015,07,03,07,55,19.70
2015,07,03,07,56,19.70
2015,07,03,07,57,19.70
2015,07,03,07,58,19.80
2015,07,03,07,59,19.80
2015,07,03,08,00,19.80
2015,07,03,08,01,19.90
2015,07,03,08,02,19.90
2015,07,03,08,03,19.90
2015,07,03,08,04,19.90
2015,07,03,08,05,19.90
2015,07,03,08,06,19.80
2015,07,03,08,07,19.80
2015,07,03,08,08,19.80
2015,07,03,08,09,19.70
2015,07,03,08,10,19.60
2015,07,03,08,11,19.50
2015,07,03,08,12,19.50
2015,07,03,08,13,19.40
2015,07,03,08,14,19.20
2015,07,03,08,15,19.20
2015,07,03,08,16,19.20
2015,07,03,08,17,19.20
2015,07,03,08,18,19.20
2015,07,03,08,19,19.20
2015,07,03,08,20,19.20
2015,07,03,08,21,19.20
2015,07,03,08,22,19.20
2015,07,03,08,23,19.20
2015,07,03,08,24,19.10
2015,07,03,08,25,19.10
2015,07,03,08,26,19.10
2015,07,03,08,27,19.10
2015,07,03,08,28,19.10
2015,07,03,08,29,19.10
2015,07,03,08,30,19.00
2015,07,03,08,31,19.00
2015,07,03,08,32,19.00
2015,07,03,08,33,19.00
2015,07,03,08,34,19.10
2015,07,03,08,35,19.10
2015,07,03,08,36,19.10
2015,07,03,08,37,19.10
2015,07,03,08,38,19.10
2015,07,03,08,39,19.10
2015,07,03,08,40,19.10
2015,07,03,08,41,19.20
2015,07,03,08,42,19.20
2015,07,03,08,43,19.20
2015,07,03,08,44,19.20
2015,07,03,08,45,19.20
2015,07,03,08,46,19.10
2015,07,03,08,47,19.10
2015,07,03,08,48,19.10
2015,07,03,08,49,19.00
2015,07,03,08,50,18.90
2015,07,03,08,51,18.90
2015,07,03,08,52,18.90
2015,07,03,08,53,18.90
2015,07,03,08,54,18.90
2015,07,03,08,55,19.00
2015,07,03,08,56,19.00
2015,07,03,08,57,19.00
2015,07,03,08,58,19.00
2015,07,03,08,59,19.00
2015,07,03,09,00,19.00
2015,07,03,09,01,19.10
2015,07,03,09,02,19.10
2015,07,03,09,03,19.10
2015,07,03,09,04,19.10
2015,07,03,09,05,19.20
2015,07,03,09,06,19.20
2015,07,03,09,07,19.20
2015,07,03,09,08,19.20
2015,07,03,09,09,19.30
2015,07,03,09,10,19.30
2015,07,03,09,11,19.20
2015,07,03,09,12,19.30
2015,07,03,09,13,19.30
2015,07,03,09,14,19.40
2015,07,03,09,15,19.40
2015,07,03,09,16,19.40
2015,07,03,09,17,19.40
2015,07,03,09,18,19.40
2015,07,03,09,19,19.40
2015,07,03,09,20,19.30
2015,07,03,09,21,19.40
2015,07,03,09,22,19.40
2015,07,03,09,23,19.40
2015,07,03,09,24,19.40
2015,07,03,09,25,19.30
2015,07,03,09,26,19.20
2015,07,03,09,27,19.20
2015,07,03,09,28,19.10
2015,07,03,09,29,19.10
2015,07,03,09,30,19.10
2015,07,03,09,31,19.10
2015,07,03,09,32,19.30
2015,07,03,09,33,19.30
2015,07,03,09,34,19.40
2015,07,03,09,35,19.40
2015,07,03,09,36,19.40
2015,07,03,09,37,19.50
2015,07,03,09,38,19.50
2015,07,03,09,39,19.50
2015,07,03,09,40,19.50
2015,07,03,09,41,19.50
2015,07,03,09,42,19.60
2015,07,03,09,43,19.60
2015,07,03,09,44,19.70
2015,07,03,09,45,19.70
2015,07,03,09,46,19.70
2015,07,03,09,47,19.60
2015,07,03,09,48,19.50
2015,07,03,09,49,19.50
2015,07,03,09,50,19.40
2015,07,03,09,51,19.30
2015,07,03,09,52,19.30
2015,07,03,09,53,19.40
2015,07,03,09,54,19.40
2015,07,03,09,55,19.40
2015,07,03,09,56,19.30
2015,07,03,09,57,19.30
2015,07,03,09,58,19.30
2015,07,03,09,59,19.30
2015,07,03,10,00,19.30
2015,07,03,10,01,19.40
2015,07,03,10,02,19.40
2015,07,03,10,03,19.50
2015,07,03,10,04,19.50
2015,07,03,10,05,19.50
2015,07,03,10,06,19.60
2015,07,03,10,07,19.60
2015,07,03,10,08,19.60
2015,07,03,10,09,19.70
2015,07,03,10,10,19.70
2015,07,03,10,11,19.70
2015,07,03,10,12,19.60
2015,07,03,10,13,19.60
2015,07,03,10,14,19.60
2015,07,03,10,15,19.60
2015,07,03,10,16,19.60
2015,07,03,10,17,19.60
2015,07,03,10,18,19.60
2015,07,03,10,19,19.60
2015,07,03,10,20,19.60
2015,07,03,10,21,19.60
2015,07,03,10,22,19.60
2015,07,03,10,23,19.70
2015,07,03,10,24,19.70
2015,07,03,10,25,19.70
2015,07,03,10,26,19.80
2015,07,03,10,27,19.80
2015,07,03,10,28,19.80
2015,07,03,10,29,19.80
2015,07,03,10,30,19.80
2015,07,03,10,31,19.80
2015,07,03,10,32,19.80
2015,07,03,10,33,19.80
2015,07,03,10,34,19.80
2015,07,03,10,35,19.80
2015,07,03,10,36,19.80
2015,07,03,10,37,19.90
2015,07,03,10,38,19.90
2015,07,03,10,39,20.00
2015,07,03,10,40,20.00
2015,07,03,10,41,20.10
2015,07,03,10,42,20.20
2015,07,03,10,43,20.30
2015,07,03,10,44,20.30
2015,07,03,10,45,20.30
2015,07,03,10,46,20.30
2015,07,03,10,47,20.30
2015,07,03,10,48,20.30
2015,07,03,10,49,20.30
2015,07,03,10,50,20.30
2015,07,03,10,51,20.30
2015,07,03,10,52,20.30
2015,07,03,10,53,20.30
2015,07,03,10,54,20.20
2015,07,03,10,55,20.20
2015,07,03,10,56,20.30
2015,07,03,10,57,20.40
2015,07,03,10,58,20.50
2015,07,03,10,59,20.60
2015,07,03,11,00,20.70
2015,07,03,11,01,20.80
2015,07,03,11,02,20.80
2015,07,03,11,03,20.80
2015,07,03,11,04,20.80
2015,07,03,11,05,20.80
2015,07,03,11,06,20.80
2015,07,03,11,07,20.90
2015,07,03,11,08,20.90
2015,07,03,11,09,20.90
2015,07,03,11,10,21.00
2015,07,03,11,11,20.90
2015,07,03,11,12,20.90
2015,07,03,11,13,20.80
2015,07,03,11,14,20.80
2015,07,03,11,15,20.80
2015,07,03,11,16,20.80
2015,07,03,11,17,20.80
2015,07,03,11,18,20.80
2015,07,03,11,19,20.80
2015,07,03,11,20,20.80
2015,07,03,11,21,21.00
2015,07,03,11,22,21.10
2015,07,03,11,23,21.10
2015,07,03,11,24,21.10
2015,07,03,11,25,21.00
2015,07,03,11,26,21.00
2015,07,03,11,27,21.10
2015,07,03,11,28,21.10
2015,07,03,11,29,21.10
2015,07,03,11,30,21.10
2015,07,03,11,31,21.10
2015,07,03,11,32,21.00
2015,07,03,11,33,21.10
2015,07,03,11,34,21.10
2015,07,03,11,35,21.30
2015,07,03,11,36,21.50
2015,07,03,11,37,21.50
2015,07,03,11,38,21.40
2015,07,03,11,39,21.40
2015,07,03,11,40,21.30
2015,07,03,11,41,21.40
2015,07,03,11,42,21.40
2015,07,03,11,43,21.50
2015,07,03,11,44,21.60
2015,07,03,11,45,21.70
2015,07,03,11,46,21.70
2015,07,03,11,47,21.80
2015,07,03,11,48,21.80
2015,07,03,11,49,21.70
2015,07,03,11,50,21.70
2015,07,03,11,51,21.70
2015,07,03,11,52,21.70
2015,07,03,11,53,21.70
2015,07,03,11,54,21.60
2015,07,03,11,55,21.60
2015,07,03,11,56,21.60
2015,07,03,11,57,21.60
2015,07,03,11,58,21.70
2015,07,03,11,59,21.70
2015,07,03,12,00,21.80
2015,07,03,12,01,21.80
2015,07,03,12,02,21.90
2015,07,03,12,03,22.00
2015,07,03,12,04,22.00
2015,07,03,12,05,22.10
2015,07,03,12,06,22.20
2015,07,03,12,07,22.30
2015,07,03,12,08,22.40
2015,07,03,12,09,22.40
2015,07,03,12,10,22.40
2015,07,03,12,11,22.40
2015,07,03,12,12,22.40
2015,07,03,12,13,22.40
2015,07,03,12,14,22.40
2015,07,03,12,15,22.50
2015,07,03,12,16,22.60
2015,07,03,12,17,22.60
2015,07,03,12,18,22.60
2015,07,03,12,19,22.60
2015,07,03,12,20,22.60
2015,07,03,12,21,22.50
2015,07,03,12,22,22.60
2015,07,03,12,23,22.60
2015,07,03,12,24,22.60
2015,07,03,12,25,22.60
2015,07,03,12,26,22.70
2015,07,03,12,27,22.70
2015,07,03,12,28,22.60
2015,07,03,12,29,22.60
2015,07,03,12,30,22.60
2015,07,03,12,31,22.50
2015,07,03,12,32,22.50
2015,07,03,12,33,22.60
2015,07,03,12,34,22.60
2015,07,03,12,35,22.60
2015,07,03,12,36,22.60
2015,07,03,12,37,22.60
2015,07,03,12,38,22.60
2015,07,03,12,39,22.60
2015,07,03,12,40,22.60
2015,07,03,12,41,22.50
2015,07,03,12,42,22.40
2015,07,03,12,43,22.40
2015,07,03,12,44,22.40
2015,07,03,12,45,22.40
2015,07,03,12,46,22.40
2015,07,03,12,47,22.50
2015,07,03,12,48,22.60
2015,07,03,12,49,22.70
2015,07,03,12,50,22.80
2015,07,03,12,51,22.80
2015,07,03,12,52,22.90
2015,07,03,12,53,22.90
2015,07,03,12,54,22.90
2015,07,03,12,55,22.90
2015,07,03,12,56,22.80
2015,07,03,12,57,22.70
2015,07,03,12,58,22.70
2015,07,03,12,59,22.80
2015,07,03,13,00,22.90
2015,07,03,13,01,22.90
2015,07,03,13,02,22.90
2015,07,03,13,03,22.80
2015,07,03,13,04,22.80
2015,07,03,13,05,22.80
2015,07,03,13,06,22.80
2015,07,03,13,07,22.90
2015,07,03,13,08,23.00
2015,07,03,13,09,23.00
2015,07,03,13,10,22.90
2015,07,03,13,11,22.90
2015,07,03,13,12,22.90
2015,07,03,13,13,23.00
2015,07,03,13,14,23.00
2015,07,03,13,15,23.10
2015,07,03,13,16,23.10
2015,07,03,13,17,23.00
2015,07,03,13,18,23.00
2015,07,03,13,19,22.90
2015,07,03,13,20,22.80
2015,07,03,13,21,22.80
2015,07,03,13,22,22.90
2015,07,03,13,23,22.90
2015,07,03,13,24,22.90
2015,07,03,13,25,23.00
2015,07,03,13,26,23.00
2015,07,03,13,27,23.10
2015,07,03,13,28,23.10
2015,07,03,13,29,23.10
2015,07,03,13,30,23.10
2015,07,03,13,31,23.10
2015,07,03,13,32,23.10
2015,07,03,13,33,23.00
2015,07,03,13,34,23.00
2015,07,03,13,35,23.10
2015,07,03,13,36,23.10
2015,07,03,13,37,23.20
2015,07,03,13,38,23.20
2015,07,03,13,39,23.20
2015,07,03,13,40,23.20
2015,07,03,13,41,23.20
2015,07,03,13,42,23.20
2015,07,03,13,43,23.20
2015,07,03,13,44,23.30
2015,07,03,13,45,23.40
2015,07,03,13,46,23.40
2015,07,03,13,47,23.40
2015,07,03,13,48,23.40
2015,07,03,13,49,23.30
2015,07,03,13,50,23.30
2015,07,03,13,51,23.30
2015,07,03,13,52,23.30
2015,07,03,13,53,23.40
2015,07,03,13,54,23.50
2015,07,03,13,55,23.60
2015,07,03,13,56,23.60
2015,07,03,13,57,23.60
2015,07,03,13,58,23.60
2015,07,03,13,59,23.70
2015,07,03,14,00,23.70
2015,07,03,14,01,23.70
2015,07,03,14,02,23.70
2015,07,03,14,03,23.70
2015,07,03,14,04,23.70
2015,07,03,14,05,23.70
2015,07,03,14,06,23.70
2015,07,03,14,07,23.70
2015,07,03,14,08,23.80
2015,07,03,14,09,23.80
2015,07,03,14,10,23.90
2015,07,03,14,11,23.90
2015,07,03,14,12,24.00
2015,07,03,14,13,24.10
2015,07,03,14,14,24.20
2015,07,03,14,15,24.30
2015,07,03,14,16,24.30
2015,07,03,14,17,24.20
2015,07,03,14,18,24.20
2015,07,03,14,19,24.20
2015,07,03,14,20,24.20
2015,07,03,14,21,24.30
2015,07,03,14,22,24.30
2015,07,03,14,23,24.30
2015,07,03,14,24,24.40
2015,07,03,14,25,24.40
2015,07,03,14,26,24.50
2015,07,03,14,27,24.60
2015,07,03,14,28,24.70
2015,07,03,14,29,24.80
2015,07,03,14,30,24.80
2015,07,03,14,31,24.90
2015,07,03,14,32,24.90
2015,07,03,14,33,24.90
2015,07,03,14,34,25.00
2015,07,03,14,35,25.10
2015,07,03,14,36,25.20
2015,07,03,14,37,25.30
2015,07,03,14,38,25.30
2015,07,03,14,39,25.20
2015,07,03,14,40,25.20
2015,07,03,14,41,25.10
2015,07,03,14,42,25.00
2015,07,03,14,43,25.00
2015,07,03,14,44,25.10
2015,07,03,14,45,25.20
2015,07,03,14,46,25.40
2015,07,03,14,47,25.50
2015,07,03,14,48,25.60
2015,07,03,14,49,25.70
2015,07,03,14,50,25.70
2015,07,03,14,51,25.70
2015,07,03,14,52,25.70
2015,07,03,14,53,25.60
2015,07,03,14,54,25.50
2015,07,03,14,55,25.50
2015,07,03,14,56,25.50
2015,07,03,14,57,25.50
2015,07,03,14,58,25.50
2015,07,03,14,59,25.50
2015,07,03,15,00,25.50
2015,07,03,15,01,25.50
2015,07,03,15,02,25.40
2015,07,03,15,03,25.40
2015,07,03,15,04,25.40
2015,07,03,15,05,25.30
2015,07,03,15,06,25.40
2015,07,03,15,07,25.50
2015,07,03,15,08,25.60
2015,07,03,15,09,25.70
2015,07,03,15,10,25.80
2015,07,03,15,11,25.90
2015,07,03,15,12,25.90
2015,07,03,15,13,25.90
2015,07,03,15,14,25.90
2015,07,03,15,15,25.90
2015,07,03,15,16,25.80
2015,07,03,15,17,25.80
2015,07,03,15,18,25.80
2015,07,03,15,19,25.80
2015,07,03,15,20,25.80
2015,07,03,15,21,25.80
2015,07,03,15,22,25.80
2015,07,03,15,23,25.80
2015,07,03,15,24,25.80
2015,07,03,15,25,25.90
2015,07,03,15,26,25.90
2015,07,03,15,27,25.80
2015,07,03,15,28,25.70
2015,07,03,15,29,25.60
2015,07,03,15,30,25.60
2015,07,03,15,31,25.60
2015,07,03,15,32,25.70
2015,07,03,15,33,25.70
2015,07,03,15,34,25.60
2015,07,03,15,35,25.60
2015,07,03,15,36,25.70
2015,07,03,15,37,25.70
2015,07,03,15,38,25.60
2015,07,03,15,39,25.60
2015,07,03,15,40,25.60
2015,07,03,15,41,25.60
2015,07,03,15,42,25.60
2015,07,03,15,43,25.60
2015,07,03,15,44,25.70
2015,07,03,15,45,25.70
2015,07,03,15,46,25.70
2015,07,03,15,47,25.80
2015,07,03,15,48,25.80
2015,07,03,15,49,25.80
2015,07,03,15,50,25.90
2015,07,03,15,51,25.90
2015,07,03,15,52,25.80
2015,07,03,15,53,25.80
2015,07,03,15,54,25.90
2015,07,03,15,55,26.00
2015,07,03,15,56,26.10
2015,07,03,15,57,26.20
2015,07,03,15,58,26.30
2015,07,03,15,59,26.20
2015,07,03,16,00,26.20
2015,07,03,16,01,26.10
2015,07,03,16,02,26.00
2015,07,03,16,03,26.00
2015,07,03,16,04,26.00
2015,07,03,16,05,26.00
2015,07,03,16,06,25.90
2015,07,03,16,07,25.90
2015,07,03,16,08,25.80
2015,07,03,16,09,25.70
2015,07,03,16,10,25.70
2015,07,03,16,11,25.70
2015,07,03,16,12,25.70
2015,07,03,16,13,25.80
2015,07,03,16,14,25.80
2015,07,03,16,15,25.80
2015,07,03,16,16,25.80
2015,07,03,16,17,25.80
2015,07,03,16,18,25.80
2015,07,03,16,19,25.80
2015,07,03,16,20,25.90
2015,07,03,16,21,25.90
2015,07,03,16,22,26.00
2015,07,03,16,23,26.10
2015,07,03,16,24,26.20
2015,07,03,16,25,26.20
2015,07,03,16,26,26.20
2015,07,03,16,27,26.20
2015,07,03,16,28,26.20
2015,07,03,16,29,26.20
2015,07,03,16,30,26.30
2015,07,03,16,31,26.50
2015,07,03,16,32,26.50
2015,07,03,16,33,26.60
2015,07,03,16,34,26.60
2015,07,03,16,35,26.70
2015,07,03,16,36,26.80
2015,07,03,16,37,26.90
2015,07,03,16,38,27.00
2015,07,03,16,39,27.10
2015,07,03,16,40,27.10
2015,07,03,16,41,27.10
2015,07,03,16,42,27.10
2015,07,03,16,43,27.10
2015,07,03,16,44,27.10
2015,07,03,16,45,27.20
2015,07,03,16,46,27.20
2015,07,03,16,47,27.30
2015,07,03,16,48,27.30
2015,07,03,16,49,27.30
2015,07,03,16,50,27.40
2015,07,03,16,51,27.40
2015,07,03,16,52,27.40
2015,07,03,16,53,27.40
2015,07,03,16,54,27.30
2015,07,03,16,55,27.20
2015,07,03,16,56,27.30
2015,07,03,16,57,27.30
2015,07,03,16,58,27.40
2015,07,03,16,59,27.40
2015,07,03,17,00,27.40
2015,07,03,17,01,27.40
2015,07,03,17,02,27.30
2015,07,03,17,03,27.30
2015,07,03,17,04,27.30
2015,07,03,17,05,27.30
2015,07,03,17,06,27.30
2015,07,03,17,07,27.30
2015,07,03,17,08,27.40
2015,07,03,17,09,27.40
2015,07,03,17,10,27.40
2015,07,03,17,11,27.40
2015,07,03,17,12,27.30
2015,07,03,17,13,27.30
2015,07,03,17,14,27.30
2015,07,03,17,15,27.30
2015,07,03,17,16,27.30
2015,07,03,17,17,27.20
2015,07,03,17,18,27.30
2015,07,03,17,19,27.30